Location: Hermaringen
(48.5952°N, 10.2585°E)
Time: 18:31:04
(UTC+00:00)

Injun/Solrad 3 - Pass Details

Date: 22 February 2026
Orbit: 872 x 984 km, 66.8° (Epoch: 6 March)

Event Time Altitude Azimuth Distance (km) Brightness Sun altitude
Rises 17:12:42 0° 325° (NW) 3,562 11.3 -4.3°
Reaches altitude 10° 17:15:18 10° 331° (NNW) 2,634 10.5 -4.7°
Maximum altitude 17:21:15 50° 46° (NE) 1,194 8.2 -5.7°
Drops below altitude 10° 17:27:21 10° 122° (ESE) 2,695 9.9 -6.7°
Sets 17:30:01 0° 127° (SE) 3,652 10.6 -7.1°
